Find Starlink 1274

NORAD ID: 45387 Int'l Des: 2020-019 Owner: SPXS Country: US Constellation: starlink operational
LEOCIRCULAR

現在のビュー

3D地球を読み込み中...

About Starlink 1274

Starlink 1274 (NORAD 45387) is a starlink constellation satellite (v1.0) launched Mar 18, 2020 by SPXS of US. It operates in LEO, CIRCULAR orbit with a mass of 260.00 kg.

次回通過

Passes for default location (London). Set your location on the main map for personalized predictions.

高度履歴

Loading altitude history...

軌道要素

1 45387U 20019AD 26264.00002315 .00116015 00000-0 42948-3 0 9994
2 45387 53.0068 224.3909 0007125 87.3543 249.0503 15.87281372 6019
Epoch: Sep 21, 2026 • Age: 6 hours

現在のステータス

高度 328.8 km
遠地点 / 近地点 N/A
速度 7.71 km/s
衛星直下点 -44.17°S, 5.14°E
打ち上げ日 Mar 18, 2020
運用期間 6.5 years
タイプ internet

技術仕様

分類 Payload
質量 260.00 kg
乾燥質量 248.00 kg
長さ 0.20 m
スパン 9.00 m
形状 ? Box + pan
製造者 SPXS
バスタイプ Starlink
フェーズステータス In Orbit
所有者/国 SPXS/US

Most Searched